Weather History for Port Hedland, WE

Change the Weather History Date:

Saturday, December 22, 2012

  Actual Average Record
Temperature  
Mean Temperature 90 °F -  
Max Temperature 101 °F 97 °F 102 °F (2005)
Min Temperature 80 °F 77 °F 73 °F (2007)
Cooling Degree Days 26    
Growing Degree Days 40 (Base 50)    
Moisture  
Dew Point 75 °F    
Average Humidity 62    
Maximum Humidity 84    
Minimum Humidity 33    
Precipitation  
Precipitation 0.00 in 0.07 in - ()
Sea Level Pressure  
Sea Level Pressure 29.66 in    
Wind  
Wind Speed 10 mph ()    
Max Wind Speed 21 mph    
Max Gust Speed -    
Visibility 6.2 miles    
Events      
Averages and records for this station are not official NWS values.
T = Trace of Precipitation, MM = Missing Value Source: Averaged Metar Reports

Daily Weather History Graph

Daily Weather History Graph

Search for Another Location

Airport:

Trip Planner

Search our weather history database for the weather conditions in past years. The results will help you decide how hot, cold, wet, or windy it might be!

Date:

Astronomy

Dec. 22, 2012 Rise Set
Actual Time 5:23 AM WST 6:45 PM WST
Civil Twilight 4:58 AM WST 7:09 PM WST
Nautical Twilight 4:28 AM WST 7:39 PM WST
Astronomical Twilight 3:58 AM WST 8:09 PM WST
Moon 1:42 PM WST (12/22) 12:46 AM WST (12/22)
Length of Visible Light 14h 11m
Length of Day
13h 22m
Waxing Gibbous, 69% of the Moon is Illuminated
Dec 22
Waxing Gibbous
Dec 28
Full
Jan 5
Last Quarter
Jan 12
New
Jan 19
First Quarter

Hourly Weather History & Observations

Time (WST) Temp. Heat Index Dew Point Humidity Pressure Visibility Wind Dir Wind Speed Gust Speed Precip Events Conditions
12:00 AM 84 °F - 78 °F 76% 29.68 in - West 9.2 mph - -  
12:00 AM 84.2 °F 94.1 °F 77.0 °F 79% 29.68 in 6.2 mi West 9.2 mph - N/A   Unknown
12:30 AM 84.2 °F 94.1 °F 77.0 °F 79% 29.65 in 6.2 mi West 6.9 mph - N/A   Unknown
1:00 AM 82.4 °F 90.9 °F 77.0 °F 84% 29.65 in 6.2 mi WNW 5.8 mph - N/A   Unknown
1:30 AM 82.4 °F 90.9 °F 77.0 °F 84% 29.65 in 6.2 mi WNW 5.8 mph - N/A   Unknown
2:00 AM 82 °F - 77 °F 79% 29.67 in - WNW 6.9 mph - -  
2:00 AM 82.4 °F 90.9 °F 77.0 °F 84% 29.65 in 6.2 mi WNW 6.9 mph - N/A   Unknown
2:30 AM 82.4 °F 90.9 °F 77.0 °F 84% 29.65 in 6.2 mi WNW 5.8 mph - N/A   Unknown
3:00 AM 82 °F - 77 °F 81% 29.66 in - West 4.6 mph - -  
3:00 AM 82.4 °F 90.9 °F 77.0 °F 84% 29.65 in 6.2 mi West 4.6 mph - N/A   Unknown
3:30 AM - - - N/A% 0.00 in - West 5.8 mph - N/A   Unknown
4:00 AM 82.4 °F 90.9 °F 77.0 °F 84% 29.65 in 6.2 mi WNW 9.2 mph - N/A   Unknown
4:30 AM 82.4 °F 90.9 °F 77.0 °F 84% 29.65 in 6.2 mi West 6.9 mph - N/A   Unknown
5:00 AM 83 °F - 76 °F 74% 29.67 in - West 8.1 mph - -  
5:00 AM 82.4 °F 90.9 °F 77.0 °F 84% 29.65 in 6.2 mi West 8.1 mph - N/A   Unknown
5:30 AM 80.6 °F 86.2 °F 75.2 °F 84% 29.68 in 6.2 mi West 8.1 mph - N/A   Unknown
6:00 AM 83 °F - 76 °F 73% 29.69 in - West 9.2 mph - -  
6:00 AM 84.2 °F 92.3 °F 75.2 °F 74% 29.68 in 6.2 mi West 9.2 mph - N/A   Unknown
6:30 AM 86.0 °F 95.1 °F 75.2 °F 70% 29.68 in 6.2 mi West 10.4 mph - N/A   Unknown
7:00 AM 87.8 °F 97.6 °F 75.2 °F 66% 29.68 in 6.2 mi West 13.8 mph - N/A   Unknown
7:30 AM 91.4 °F 102.5 °F 75.2 °F 59% 29.68 in 6.2 mi West 8.1 mph - N/A   Unknown
8:00 AM 94 °F - 72 °F 40% 29.70 in - West 6.9 mph - -  
8:00 AM 93.2 °F 100.5 °F 71.6 °F 49% 29.68 in 6.2 mi West 6.9 mph - N/A   Unknown
8:30 AM 96.8 °F 105.1 °F 71.6 °F 44% 29.68 in 6.2 mi NNW 2.3 mph - N/A   Unknown
9:00 AM 96 °F - 75 °F 41% 29.70 in - NNW 6.9 mph - -  
9:00 AM 95.0 °F 107.4 °F 75.2 °F 53% 29.68 in 6.2 mi NNW 6.9 mph - N/A   Unknown
9:30 AM 95.0 °F 112.2 °F 78.8 °F 59% 29.68 in 6.2 mi North 10.4 mph - N/A   Unknown
10:00 AM 95.0 °F 112.2 °F 78.8 °F 59% 29.68 in 6.2 mi North 12.7 mph - N/A   Unknown
10:30 AM 96.8 °F 114.8 °F 78.8 °F 56% 29.68 in 6.2 mi NNW 13.8 mph - N/A   Unknown
11:00 AM 97 °F - 77 °F 44% 29.69 in - NNW 12.7 mph - -  
11:00 AM 96.8 °F 112.2 °F 77.0 °F 53% 29.68 in 6.2 mi NNW 12.7 mph - N/A   Unknown
11:30 AM 98.6 °F 114.4 °F 77.0 °F 50% 29.68 in 6.2 mi NNW 11.5 mph - N/A   Unknown
12:00 PM 99 °F - 76 °F 38% 29.67 in - NNW 13.8 mph - -  
12:00 PM 98.6 °F 111.7 °F 75.2 °F 47% 29.65 in 6.2 mi NNW 13.8 mph - N/A   Unknown
12:30 PM 98.6 °F 111.7 °F 75.2 °F 47% 29.65 in 6.2 mi NNW 15.0 mph - N/A   Unknown
1:00 PM 98.6 °F 109.2 °F 73.4 °F 44% 29.62 in 6.2 mi NW 18.4 mph - N/A   Unknown
1:30 PM 98.6 °F 107.7 °F 71.6 °F 42% 29.62 in 6.2 mi NW 19.6 mph - N/A   Unknown
2:00 PM 97 °F - 71 °F 33% 29.63 in - NW 20.7 mph - -  
2:00 PM 96.8 °F 105.1 °F 71.6 °F 44% 29.62 in 6.2 mi NW 20.7 mph - N/A   Unknown
2:30 PM 96.8 °F 103.1 °F 69.8 °F 41% 29.62 in 6.2 mi NW 17.3 mph - N/A   Unknown
3:00 PM 96 °F - 71 °F 35% 29.62 in - NW 19.6 mph - -  
3:00 PM 96.8 °F 105.1 °F 71.6 °F 44% 29.62 in 6.2 mi NW 19.6 mph - N/A   Unknown
3:30 PM 93.2 °F 98.8 °F 69.8 °F 46% 29.59 in 6.2 mi NW 19.6 mph - N/A   Unknown
4:00 PM 93.2 °F 100.5 °F 71.6 °F 49% 29.59 in 6.2 mi NW 20.7 mph - N/A   Unknown
4:30 PM 91.4 °F 100.1 °F 73.4 °F 55% 29.59 in 6.2 mi NW 19.6 mph - N/A   Unknown
5:00 PM 92 °F - 74 °F 46% 29.61 in - NW 19.6 mph - -  
5:00 PM 93.2 °F 102.4 °F 73.4 °F 52% 29.59 in 6.2 mi NW 19.6 mph - N/A   Unknown
5:30 PM 91.4 °F 100.1 °F 73.4 °F 55% 29.62 in 6.2 mi WNW 16.1 mph - N/A   Unknown
6:00 PM 90 °F - 75 °F 52% 29.62 in - WNW 17.3 mph - -  
6:00 PM 89.6 °F 99.8 °F 75.2 °F 62% 29.62 in 6.2 mi WNW 17.3 mph - N/A   Unknown
6:30 PM 87.8 °F 97.6 °F 75.2 °F 66% 29.62 in 6.2 mi WNW 13.8 mph - N/A   Unknown
7:00 PM 87.8 °F 99.7 °F 77.0 °F 70% 29.65 in 6.2 mi WNW 12.7 mph - N/A   Unknown
7:30 PM 87.8 °F 97.6 °F 75.2 °F 66% 29.68 in 6.2 mi WNW 12.7 mph - N/A   Unknown
8:00 PM 88 °F - 76 °F 60% 29.70 in - West 12.7 mph - -  
8:00 PM 87.8 °F 97.6 °F 75.2 °F 66% 29.68 in 6.2 mi West 12.7 mph - N/A   Unknown
8:30 PM 87.8 °F 95.6 °F 73.4 °F 62% 29.68 in 6.2 mi West 11.5 mph - N/A   Unknown
9:00 PM 87 °F - 74 °F 59% 29.70 in - WNW 9.2 mph - -  
9:00 PM 87.8 °F 97.6 °F 75.2 °F 66% 29.68 in 6.2 mi WNW 9.2 mph - N/A   Unknown
9:30 PM 86.0 °F 95.1 °F 75.2 °F 70% 29.68 in 6.2 mi NNW 8.1 mph - N/A   Unknown
10:00 PM 86.0 °F 96.9 °F 77.0 °F 74% 29.68 in 6.2 mi North 9.2 mph - N/A   Unknown
10:30 PM 86.0 °F 99.3 °F 78.8 °F 79% 29.68 in 6.2 mi WNW 9.2 mph - N/A   Unknown
11:00 PM 85 °F - 79 °F 77% 29.68 in - NW 8.1 mph - -  
11:00 PM 86.0 °F 99.3 °F 78.8 °F 79% 29.68 in 6.2 mi NW 8.1 mph - N/A   Unknown
11:30 PM 86.0 °F 101.9 °F 80.6 °F 84% 29.65 in 6.2 mi WNW 11.5 mph - N/A   Unknown